Location: Kaarina
(60.4167°N, 22.4167°E)
Time: 01:58:20
(UTC+03:00)

EO 1 Del DPAF - Pass Details

Date: 24 August 2019
Orbit: 516 x 522 km, 98.0° (Epoch: 19 September)

Event Time Altitude Azimuth Distance (km) Brightness Sun altitude
Rises 22:29:57 0° 21° (NNE) 2,660 7.1 -9.9°
Reaches altitude 10° 22:32:13 10° 31° (NNE) 1,766 6.1 -10.1°
Maximum altitude 22:35:42 34° 97° (E) 878 4.0 -10.4°
Enters shadow 22:38:34 14° 159° (SSE) 1,530 5.0 -10.7°
